#�ϑ�����,���ϕ���,���ϕ���,�ő啗��,�ő啗����������,�ő�u�ԕ���,�ő�u�ԕ�����������
#(�N����),(m/s)   ,(16����),(m/s)   ,(16����)        ,(m/s)       ,(16����)            
2018/6/30 0:01,1.6,5,1.8,5,2.1,4
2018/6/30 0:02,1.5,5,1.6,5,1.6,4
2018/6/30 0:03,1.5,4,1.5,5,1.9,2
2018/6/30 0:04,1.5,4,1.5,5,2,3
2018/6/30 0:05,1.5,4,1.5,5,3,3
2018/6/30 0:06,1.5,4,1.5,5,2.4,4
2018/6/30 0:07,1.5,4,1.5,5,2.2,5
2018/6/30 0:08,1.4,4,1.5,5,1.6,3
2018/6/30 0:09,1.3,4,1.3,5,2,2
2018/6/30 0:10,1.3,3,1.3,5,2.1,3
2018/6/30 0:11,1.4,3,1.4,5,2.4,2
2018/6/30 0:12,1.4,3,1.4,5,2,4
2018/6/30 0:13,1.4,3,1.4,4,2.4,2
2018/6/30 0:14,1.5,3,1.5,4,4.2,3
2018/6/30 0:15,1.5,3,1.5,4,3.2,4
2018/6/30 0:16,1.5,3,1.6,3,2,1
2018/6/30 0:17,1.5,3,1.5,3,1.8,1
2018/6/30 0:18,1.6,3,1.6,3,2.1,2
2018/6/30 0:19,1.7,3,1.7,3,3.2,3
2018/6/30 0:20,1.7,2,1.7,3,2.4,3
2018/6/30 0:21,1.7,2,1.7,3,3.6,3
2018/6/30 0:22,1.8,2,1.8,2,3.6,3
2018/6/30 0:23,1.8,2,1.8,2,3.3,3
2018/6/30 0:24,1.9,2,1.9,2,4.7,4
2018/6/30 0:25,1.9,2,1.9,2,4.7,4
2018/6/30 0:26,2.2,2,2.2,2,5.1,4
2018/6/30 0:27,2.4,3,2.4,3,4.8,3
2018/6/30 0:28,2.7,3,2.7,3,5,3
2018/6/30 0:29,2.7,3,2.7,3,3.9,3
2018/6/30 0:30,2.9,3,2.9,3,4.5,3
2018/6/30 0:31,3,3,3,3,4.4,3
2018/6/30 0:32,3.1,3,3.1,3,3.6,3
2018/6/30 0:33,3.1,3,3.1,3,3.7,3
2018/6/30 0:34,3.1,3,3.1,3,5.2,3
2018/6/30 0:35,3.2,3,3.2,3,6,4
2018/6/30 0:36,3,3,3.2,3,4.3,3
2018/6/30 0:37,3,3,3,3,4.2,3
2018/6/30 0:38,2.8,3,2.9,3,4.1,3
2018/6/30 0:39,2.7,3,2.8,3,3.5,4
2018/6/30 0:40,2.6,3,2.7,3,2.4,4
2018/6/30 0:41,2.4,3,2.5,3,3.5,2
2018/6/30 0:42,2.4,3,2.5,3,4.2,2
2018/6/30 0:43,2.4,3,2.4,3,3.2,3
2018/6/30 0:44,2.4,2,2.4,3,3.9,3
2018/6/30 0:45,2.2,2,2.4,3,3.6,4
2018/6/30 0:46,2.3,2,2.3,3,3.7,4
2018/6/30 0:47,2.2,2,2.2,3,2.9,3
2018/6/30 0:48,2.1,2,2.2,3,3.5,3
2018/6/30 0:49,2.1,2,2.1,3,3.5,4
2018/6/30 0:50,2.2,2,2.2,3,3.2,3
2018/6/30 0:51,2.3,2,2.3,3,4.3,3
2018/6/30 0:52,2.2,2,2.3,3,3.9,3
2018/6/30 0:53,2.2,2,2.2,3,2.6,2
2018/6/30 0:54,2.1,2,2.2,2,3.8,4
2018/6/30 0:55,2,2,2.1,2,3.6,3
2018/6/30 0:56,2,2,2,2,3,2
2018/6/30 0:57,2,2,2,2,2.5,2
2018/6/30 0:58,2,2,2.1,2,2.5,2
2018/6/30 0:59,1.8,2,2,2,1.4,16
2018/6/30 1:00,1.7,2,1.8,2,2.7,3
2018/6/30 1:01,1.6,2,1.7,2,2.1,4
2018/6/30 1:02,1.5,2,1.6,2,1.9,3
2018/6/30 1:03,1.5,2,1.6,2,2.2,3
2018/6/30 1:04,1.5,2,1.5,2,1.6,3
2018/6/30 1:05,1.4,2,1.5,2,2.1,4
2018/6/30 1:06,1.4,2,1.4,2,2.1,3
2018/6/30 1:07,1.4,2,1.4,2,2.1,4
2018/6/30 1:08,1.4,3,1.4,2,2.1,3
2018/6/30 1:09,1.4,3,1.4,2,1.6,5
2018/6/30 1:10,1.4,3,1.4,2,1.8,6
2018/6/30 1:11,1.4,3,1.4,2,2.1,5
2018/6/30 1:12,1.4,3,1.4,2,1.9,5
2018/6/30 1:13,1.4,4,1.4,2,1.6,3
2018/6/30 1:14,1.4,4,1.4,2,2.9,3
2018/6/30 1:15,1.5,4,1.5,4,3.6,5
2018/6/30 1:16,1.6,4,1.6,4,3.7,5
2018/6/30 1:17,1.8,4,1.8,4,4.5,2
2018/6/30 1:18,1.9,4,1.9,4,3.9,4
2018/6/30 1:19,2,4,2,4,4.4,5
2018/6/30 1:20,2.1,4,2.1,4,4.4,5
2018/6/30 1:21,2.2,4,2.2,4,3,5
2018/6/30 1:22,2.2,4,2.2,4,2,6
2018/6/30 1:23,2.2,4,2.2,4,2.2,4
2018/6/30 1:24,2.3,4,2.3,4,3.2,5
2018/6/30 1:25,2.1,4,2.2,4,1.6,4
2018/6/30 1:26,1.9,4,2.1,4,2.6,6
2018/6/30 1:27,1.8,4,1.9,4,2.7,6
2018/6/30 1:28,1.7,4,1.8,4,3.5,3
2018/6/30 1:29,1.5,4,1.7,4,1.1,7
2018/6/30 1:30,1.4,4,1.5,4,1.9,3
2018/6/30 1:31,1.3,4,1.4,4,1.6,5
2018/6/30 1:32,1.3,4,1.3,4,1.1,5
2018/6/30 1:33,1.2,5,1.3,4,2,7
2018/6/30 1:34,1.2,5,1.2,4,2.1,3
2018/6/30 1:35,1.2,5,1.2,4,3.2,4
2018/6/30 1:36,1.3,5,1.3,4,3.2,3
2018/6/30 1:37,1.5,5,1.5,4,4.4,5
2018/6/30 1:38,1.5,5,1.5,4,3.6,6
2018/6/30 1:39,1.6,5,1.6,5,2.9,4
2018/6/30 1:40,1.7,5,1.7,5,2.6,4
2018/6/30 1:41,1.8,5,1.8,5,4.2,5
2018/6/30 1:42,2.1,5,2.1,5,3.9,5
2018/6/30 1:43,2.2,4,2.2,5,4.1,4
2018/6/30 1:44,2.3,5,2.3,5,3.8,4
2018/6/30 1:45,2.5,5,2.5,5,4.5,5
2018/6/30 1:46,2.6,5,2.6,5,4.7,5
2018/6/30 1:47,2.5,5,2.6,5,3.7,4
2018/6/30 1:48,2.5,4,2.5,5,3,4
2018/6/30 1:49,2.5,4,2.5,5,2.9,4
2018/6/30 1:50,2.5,4,2.5,5,2.4,4
2018/6/30 1:51,2.4,4,2.5,5,2.6,4
2018/6/30 1:52,2.3,4,2.4,5,2.6,2
2018/6/30 1:53,2.1,4,2.3,5,1.6,4
2018/6/30 1:54,2,4,2.1,5,1.9,4
2018/6/30 1:55,1.9,4,2,5,2.5,5
2018/6/30 1:56,1.9,4,1.9,5,5.2,4
2018/6/30 1:57,1.8,4,1.9,5,4.2,5
2018/6/30 1:58,1.9,4,1.9,4,3.7,6
2018/6/30 1:59,2,4,2,4,4.2,4
2018/6/30 2:00,2.1,4,2.1,4,3.3,4
2018/6/30 2:01,2.1,4,2.1,4,3,3
2018/6/30 2:02,2.1,4,2.1,4,2,3
2018/6/30 2:03,2.1,4,2.1,4,3.2,5
2018/6/30 2:04,2.3,4,2.3,4,3.8,6
2018/6/30 2:05,2.3,4,2.3,4,2.6,5
2018/6/30 2:06,2.1,4,2.3,4,2,3
2018/6/30 2:07,2,4,2.1,4,2.9,3
2018/6/30 2:08,1.9,4,2,4,3.5,3
2018/6/30 2:09,1.9,4,1.9,4,2.6,4
2018/6/30 2:10,1.8,4,1.8,4,2.6,3
2018/6/30 2:11,1.7,4,1.8,4,1.9,5
2018/6/30 2:12,1.7,4,1.7,4,2,2
2018/6/30 2:13,1.7,4,1.7,4,3.2,4
2018/6/30 2:14,1.7,4,1.7,4,3.9,5
2018/6/30 2:15,1.7,4,1.7,4,2.6,4
2018/6/30 2:16,1.7,4,1.7,4,3.6,5
2018/6/30 2:17,1.9,4,1.9,4,2.7,6
2018/6/30 2:18,1.7,4,1.8,4,2,5
2018/6/30 2:19,1.7,4,1.7,4,2.7,5
2018/6/30 2:20,1.6,5,1.7,4,2.4,4
2018/6/30 2:21,1.7,5,1.7,4,3.7,6
2018/6/30 2:22,1.8,5,1.8,4,3.9,6
2018/6/30 2:23,1.8,6,1.8,4,2.9,7
2018/6/30 2:24,1.7,6,1.8,4,2.1,6
2018/6/30 2:25,1.7,6,1.7,4,1.4,6
2018/6/30 2:26,1.5,6,1.7,4,1.4,6
2018/6/30 2:27,1.4,6,1.5,4,1,5
2018/6/30 2:28,1.3,6,1.3,5,1.5,5
2018/6/30 2:29,1.4,6,1.4,5,3.7,4
2018/6/30 2:30,1.5,6,1.5,5,4.2,4
2018/6/30 2:31,1.6,6,1.6,5,3,3
2018/6/30 2:32,1.6,5,1.6,5,3,4
2018/6/30 2:33,1.6,5,1.6,6,4.1,5
2018/6/30 2:34,1.7,5,1.7,6,4.1,6
2018/6/30 2:35,1.9,5,1.9,5,3.8,5
2018/6/30 2:36,2.1,5,2.1,5,3.5,7
2018/6/30 2:37,2.3,5,2.3,5,3.3,6
2018/6/30 2:38,2.4,5,2.4,5,2.9,5
2018/6/30 2:39,2.3,5,2.4,5,2.9,6
2018/6/30 2:40,2.3,5,2.3,5,2.4,6
2018/6/30 2:41,2.2,6,2.3,5,1.6,6
2018/6/30 2:42,2.1,6,2.2,5,2.5,6
2018/6/30 2:43,2.1,6,2.1,5,3.1,6
2018/6/30 2:44,2,6,2.1,5,2.4,6
2018/6/30 2:45,2,6,2,5,2.7,6
2018/6/30 2:46,1.9,6,2,5,2.7,6
2018/6/30 2:47,1.8,6,1.9,5,3.6,4
2018/6/30 2:48,1.9,6,1.9,5,4.5,4
2018/6/30 2:49,2,6,2,5,3.6,5
2018/6/30 2:50,2,6,2,5,2.9,6
2018/6/30 2:51,2.2,6,2.2,6,3.3,6
2018/6/30 2:52,2.1,6,2.2,6,1.9,6
2018/6/30 2:53,2,5,2.1,6,1.9,4
2018/6/30 2:54,2,5,2,6,2.1,4
2018/6/30 2:55,2,5,2,6,2.1,4
2018/6/30 2:56,1.9,5,2,6,2.1,3
2018/6/30 2:57,1.9,5,1.9,6,2.1,2
2018/6/30 2:58,1.7,4,1.9,6,2,1
2018/6/30 2:59,1.6,4,1.7,6,2.6,3
2018/6/30 3:00,1.6,4,1.6,6,2.4,3
2018/6/30 3:01,1.5,3,1.6,6,3,3
2018/6/30 3:02,1.5,3,1.5,6,2.4,2
2018/6/30 3:03,1.7,3,1.7,5,2.9,3
2018/6/30 3:04,1.7,3,1.7,5,2.6,3
2018/6/30 3:05,1.7,3,1.7,5,2,3
2018/6/30 3:06,1.6,3,1.7,5,1.8,3
2018/6/30 3:07,1.5,3,1.6,5,1,1
2018/6/30 3:08,1.5,3,1.5,4,1.3,3
2018/6/30 3:09,1.5,3,1.5,3,2.4,3
2018/6/30 3:10,1.5,3,1.5,3,2.6,2
2018/6/30 3:11,1.4,3,1.4,3,1.9,3
2018/6/30 3:12,1.3,3,1.4,3,1.1,4
2018/6/30 3:13,1.2,3,1.3,3,1.3,2
2018/6/30 3:14,1.1,3,1.2,3,1.4,4
2018/6/30 3:15,1,3,1,3,1.3,3
2018/6/30 3:16,1,3,1,3,1.1,4
2018/6/30 3:17,1,3,1,3,1.3,2
2018/6/30 3:18,1,3,1,3,1.3,3
2018/6/30 3:19,1,3,1,3,1,3
2018/6/30 3:20,0.9,3,1,3,2,3
2018/6/30 3:21,0.8,3,0.9,3,1.3,3
2018/6/30 3:22,0.8,2,0.9,3,1.3,2
2018/6/30 3:23,0.8,3,0.8,3,2.4,2
2018/6/30 3:24,1,3,1,3,2.4,2
2018/6/30 3:25,1.1,3,1.1,3,2.4,3
2018/6/30 3:26,1.2,3,1.2,3,2.2,3
2018/6/30 3:27,1.3,3,1.3,3,2.6,4
2018/6/30 3:28,1.4,3,1.4,3,3.7,3
2018/6/30 3:29,1.5,3,1.5,3,3,3
2018/6/30 3:30,1.5,3,1.5,3,2.5,5
2018/6/30 3:31,1.6,3,1.6,3,2.4,3
2018/6/30 3:32,1.8,3,1.8,3,2.9,4
2018/6/30 3:33,1.9,3,1.9,3,2.7,4
2018/6/30 3:34,1.9,3,1.9,3,3.2,4
2018/6/30 3:35,2,3,2,3,4.1,4
2018/6/30 3:36,2.1,3,2.1,3,3.5,3
2018/6/30 3:37,2.2,3,2.2,3,3.5,1
2018/6/30 3:38,2.2,3,2.2,3,3.6,3
2018/6/30 3:39,2.1,3,2.1,3,3.5,3
2018/6/30 3:40,2.3,3,2.3,3,3.7,3
2018/6/30 3:41,2.4,3,2.4,3,3.7,2
2018/6/30 3:42,2.4,3,2.4,3,3,2
2018/6/30 3:43,2.4,3,2.4,3,3.7,3
2018/6/30 3:44,2.4,3,2.4,3,2.9,2
2018/6/30 3:45,2.3,3,2.4,3,3.1,4
2018/6/30 3:46,2.3,3,2.3,3,3.5,3
2018/6/30 3:47,2.2,3,2.3,3,3.1,3
2018/6/30 3:48,2.1,3,2.2,3,2.9,3
2018/6/30 3:49,2.1,3,2.1,3,2.2,1
2018/6/30 3:50,2,3,2.1,3,3.3,3
2018/6/30 3:51,1.9,3,2,3,3.2,2
2018/6/30 3:52,1.9,3,1.9,3,2.4,3
2018/6/30 3:53,1.8,3,1.9,3,2.4,3
2018/6/30 3:54,1.7,2,1.8,3,2,3
2018/6/30 3:55,1.7,3,1.7,3,3.1,3
2018/6/30 3:56,1.6,2,1.7,3,2.9,3
2018/6/30 3:57,1.6,2,1.6,3,2.7,3
2018/6/30 3:58,1.6,2,1.6,3,2.6,3
2018/6/30 3:59,1.6,2,1.7,3,3.2,2
2018/6/30 4:00,1.7,2,1.7,3,2.7,3
2018/6/30 4:01,1.6,2,1.7,3,2.6,3
2018/6/30 4:02,1.6,2,1.6,3,2.7,3
2018/6/30 4:03,1.6,2,1.6,3,2.6,3
2018/6/30 4:04,1.7,2,1.7,2,1.9,3
2018/6/30 4:05,1.7,2,1.7,3,2.5,3
2018/6/30 4:06,1.7,2,1.7,2,2.5,3
2018/6/30 4:07,1.7,2,1.7,2,3,3
2018/6/30 4:08,1.7,3,1.8,3,3.3,2
2018/6/30 4:09,1.8,3,1.8,3,3.3,3
2018/6/30 4:10,1.9,3,1.9,3,3.8,3
2018/6/30 4:11,1.9,3,1.9,3,3.6,3
2018/6/30 4:12,2,2,2,3,3.6,3
2018/6/30 4:13,2.1,3,2.1,2,3.5,3
2018/6/30 4:14,2.1,3,2.1,2,2.2,4
2018/6/30 4:15,2.1,2,2.1,2,2.4,3
2018/6/30 4:16,2.1,2,2.1,2,3.6,3
2018/6/30 4:17,2.1,2,2.1,2,3.7,3
2018/6/30 4:18,2.1,2,2.1,2,3.6,3
2018/6/30 4:19,2,2,2.1,2,3.5,3
2018/6/30 4:20,1.9,2,2,2,2.7,3
2018/6/30 4:21,1.9,2,1.9,2,3.2,3
2018/6/30 4:22,1.9,2,1.9,2,3.2,3
2018/6/30 4:23,1.8,2,1.9,3,2.5,3
2018/6/30 4:24,1.9,2,1.9,2,2.7,2
2018/6/30 4:25,1.9,2,1.9,2,2.2,3
2018/6/30 4:26,1.9,2,1.9,2,3.5,2
2018/6/30 4:27,1.9,2,1.9,2,3.3,3
2018/6/30 4:28,1.8,2,1.9,2,2.7,3
2018/6/30 4:29,1.8,2,1.8,2,2.2,4
2018/6/30 4:30,1.7,2,1.8,2,2.4,2
2018/6/30 4:31,1.6,2,1.7,2,1,3
2018/6/30 4:32,1.5,2,1.6,2,2.2,3
2018/6/30 4:33,1.4,2,1.5,2,2.1,2
2018/6/30 4:34,1.4,2,1.4,2,2.5,2
2018/6/30 4:35,1.5,2,1.5,2,3,4
2018/6/30 4:36,1.4,2,1.5,2,1.4,4
2018/6/30 4:37,1.2,2,1.4,2,1.4,3
2018/6/30 4:38,1.2,3,1.2,2,2,3
2018/6/30 4:39,1.3,3,1.3,2,2.2,4
2018/6/30 4:40,1.3,3,1.3,2,2,3
2018/6/30 4:41,1.4,3,1.4,2,2.2,5
2018/6/30 4:42,1.4,3,1.4,2,2.1,6
2018/6/30 4:43,1.3,3,1.4,2,1.6,3
2018/6/30 4:44,1.2,3,1.3,2,1.3,5
2018/6/30 4:45,1.1,3,1.2,2,1.4,3
2018/6/30 4:46,1,3,1,2,1.1,3
2018/6/30 4:47,1,3,1,3,1.3,1
2018/6/30 4:48,1,3,1.1,3,1.6,2
2018/6/30 4:49,1,3,1,3,1.5,1
2018/6/30 4:50,0.9,3,1,3,1.1,16
2018/6/30 4:51,0.8,2,0.9,3,1.1,2
2018/6/30 4:52,0.8,2,0.8,3,2.5,3
2018/6/30 4:53,1,2,1,3,2.2,3
2018/6/30 4:54,1.2,2,1.2,3,2.6,3
2018/6/30 4:55,1.3,2,1.3,2,3.3,4
2018/6/30 4:56,1.5,2,1.5,2,3.5,4
2018/6/30 4:57,1.7,3,1.7,3,3.1,3
2018/6/30 4:58,1.7,3,1.7,3,2.5,3
2018/6/30 4:59,1.8,3,1.8,3,2.5,3
2018/6/30 5:00,2,3,2,3,3.6,3
2018/6/30 5:01,2.1,3,2.1,3,3.2,4
2018/6/30 5:02,2.1,3,2.1,3,2.6,3
2018/6/30 5:03,2.1,3,2.1,3,3.5,2
2018/6/30 5:04,2.1,3,2.2,3,3.2,3
2018/6/30 5:05,2.1,3,2.1,3,3.2,4
2018/6/30 5:06,2,3,2.1,3,3.3,3
2018/6/30 5:07,1.9,3,2,3,2.2,3
2018/6/30 5:08,1.8,3,1.9,3,2.4,4
2018/6/30 5:09,1.9,3,1.9,3,2.4,3
2018/6/30 5:10,1.8,3,1.9,3,3.2,3
2018/6/30 5:11,1.9,3,1.9,3,3.1,3
2018/6/30 5:12,2,3,2,3,3.2,3
2018/6/30 5:13,1.9,3,2,3,3,3
2018/6/30 5:14,1.9,3,1.9,3,3.2,4
2018/6/30 5:15,1.9,3,1.9,3,3.3,4
2018/6/30 5:16,2,3,2,3,3.7,4
2018/6/30 5:17,2.1,3,2.1,3,3.5,3
2018/6/30 5:18,2.2,3,2.2,3,3.9,3
2018/6/30 5:19,2.2,3,2.2,3,2.7,4
2018/6/30 5:20,2.1,3,2.2,3,3,2
2018/6/30 5:21,2.1,3,2.1,3,2.9,4
2018/6/30 5:22,1.9,3,2,3,1.9,2
2018/6/30 5:23,1.9,3,1.9,3,3.5,2
2018/6/30 5:24,2,3,2,3,3.6,2
2018/6/30 5:25,1.9,2,1.9,3,2.5,3
2018/6/30 5:26,1.8,2,1.9,3,2.5,2
2018/6/30 5:27,1.7,2,1.8,3,3,3
2018/6/30 5:28,1.7,2,1.8,3,3.5,2
2018/6/30 5:29,1.7,2,1.7,3,2.7,4
2018/6/30 5:30,1.8,2,1.8,3,3.2,3
2018/6/30 5:31,1.9,2,1.9,3,3.2,3
2018/6/30 5:32,2.1,2,2.1,2,4.7,4
2018/6/30 5:33,2.1,3,2.1,2,3.2,3
2018/6/30 5:34,2.2,3,2.2,3,3.6,3
2018/6/30 5:35,2.2,3,2.2,3,2.9,3
2018/6/30 5:36,2.2,3,2.2,3,2,4
2018/6/30 5:37,2.3,3,2.3,3,3,4
2018/6/30 5:38,2.2,3,2.3,3,2.7,3
2018/6/30 5:39,2.3,3,2.3,3,3.9,3
2018/6/30 5:40,2.4,3,2.4,3,3,3
2018/6/30 5:41,2.3,4,2.4,3,2.2,5
2018/6/30 5:42,2.2,4,2.3,3,3.3,5
2018/6/30 5:43,2.2,4,2.2,3,3.5,5
2018/6/30 5:44,2.1,4,2.2,3,3,6
2018/6/30 5:45,2.1,4,2.1,3,2.7,5
2018/6/30 5:46,2.2,4,2.2,3,3,5
2018/6/30 5:47,2.1,4,2.2,3,3,5
2018/6/30 5:48,2.1,5,2.1,3,2.5,5
2018/6/30 5:49,2.1,5,2.1,3,2.7,5
2018/6/30 5:50,2,5,2.1,3,2,4
2018/6/30 5:51,2,5,2,4,2.2,5
2018/6/30 5:52,2,5,2,4,2.7,5
2018/6/30 5:53,1.9,5,2,4,1.9,4
2018/6/30 5:54,1.8,4,1.8,4,1.9,3
2018/6/30 5:55,1.8,4,1.8,4,2,4
2018/6/30 5:56,1.7,4,1.7,4,2.2,1
2018/6/30 5:57,1.7,4,1.7,4,2.5,2
2018/6/30 5:58,1.7,3,1.7,5,3.1,4
2018/6/30 5:59,1.7,3,1.7,5,3.5,4
2018/6/30 6:00,1.7,3,1.7,5,2.5,3
2018/6/30 6:01,1.7,3,1.7,5,2.2,2
2018/6/30 6:02,1.7,3,1.7,5,3.5,3
2018/6/30 6:03,1.9,3,1.9,3,4.1,3
2018/6/30 6:04,2,3,2,3,3.7,4
2018/6/30 6:05,2.2,3,2.2,3,3.2,3
2018/6/30 6:06,2.2,3,2.2,3,3.1,3
2018/6/30 6:07,2.3,3,2.3,3,3,3
2018/6/30 6:08,2.2,3,2.3,3,3.6,4
2018/6/30 6:09,2.3,3,2.3,3,4.4,3
2018/6/30 6:10,2.3,3,2.3,3,3.2,3
2018/6/30 6:11,2.4,3,2.4,3,3.6,2
2018/6/30 6:12,2.4,3,2.4,3,3.2,3
2018/6/30 6:13,2.3,3,2.4,3,2.4,4
2018/6/30 6:14,2.2,3,2.3,3,3.1,3
2018/6/30 6:15,2.1,3,2.2,3,2.4,3
2018/6/30 6:16,2.1,3,2.1,3,3.3,3
2018/6/30 6:17,2.2,3,2.2,3,3.5,4
2018/6/30 6:18,2.1,3,2.2,3,3.3,4
2018/6/30 6:19,2.1,3,2.2,3,3.2,3
2018/6/30 6:20,2.1,3,2.1,3,3,3
2018/6/30 6:21,2,3,2.1,3,2.6,3
2018/6/30 6:22,2.1,3,2.1,3,2.7,3
2018/6/30 6:23,2.2,3,2.2,3,3.2,4
2018/6/30 6:24,2.2,3,2.2,3,3.1,3
2018/6/30 6:25,2.3,3,2.3,3,3.2,3
2018/6/30 6:26,2.2,3,2.2,3,2.9,5
2018/6/30 6:27,2.1,3,2.2,3,2.7,4
2018/6/30 6:28,2.1,4,2.1,3,2.1,5
2018/6/30 6:29,2,4,2.1,3,2.2,4
2018/6/30 6:30,2,4,2,3,2.2,3
2018/6/30 6:31,1.9,4,2,3,2.5,4
2018/6/30 6:32,1.9,4,1.9,3,2.9,5
2018/6/30 6:33,1.8,4,1.9,3,3.2,4
2018/6/30 6:34,1.8,4,1.8,3,3.1,5
2018/6/30 6:35,1.8,5,1.8,3,3,5
2018/6/30 6:36,1.8,5,1.8,3,2.5,5
2018/6/30 6:37,1.7,5,1.8,3,2.5,5
2018/6/30 6:38,1.8,5,1.8,4,3.8,4
2018/6/30 6:39,1.8,5,1.8,4,2.1,5
2018/6/30 6:40,1.8,5,1.8,4,3.3,3
2018/6/30 6:41,1.9,4,1.9,4,3.7,6
2018/6/30 6:42,2,4,2,4,3.5,3
2018/6/30 6:43,2,4,2,4,3.8,4
2018/6/30 6:44,2.1,4,2.1,4,3,5
2018/6/30 6:45,2,4,2.1,4,2.5,4
2018/6/30 6:46,2,4,2,4,2,5
2018/6/30 6:47,2,4,2,4,2,3
2018/6/30 6:48,1.9,4,2,4,2.5,3
2018/6/30 6:49,2,4,2,4,4.2,5
2018/6/30 6:50,2,4,2,4,3.7,6
2018/6/30 6:51,2,4,2,4,2.6,5
2018/6/30 6:52,1.9,4,2,4,2.7,5
2018/6/30 6:53,1.8,5,1.9,4,2.9,5
2018/6/30 6:54,1.8,5,1.8,4,2.4,5
2018/6/30 6:55,1.7,5,1.8,4,2.7,5
2018/6/30 6:56,1.8,5,1.8,4,3.1,5
2018/6/30 6:57,1.8,5,1.8,4,2.9,5
2018/6/30 6:58,1.9,5,1.9,4,3.5,3
2018/6/30 6:59,1.8,5,1.9,4,3.1,5
2018/6/30 7:00,1.8,5,1.8,4,2.4,5
2018/6/30 7:01,1.9,5,1.9,4,4.2,5
2018/6/30 7:02,2,5,2,5,3,5
2018/6/30 7:03,2.1,5,2.1,5,4.1,3
2018/6/30 7:04,2.2,5,2.2,5,4.1,3
2018/6/30 7:05,2.3,4,2.3,4,3.7,4
2018/6/30 7:06,2.2,4,2.3,4,2.2,4
2018/6/30 7:07,2.3,4,2.3,4,2.5,2
2018/6/30 7:08,2.3,4,2.3,4,3,5
2018/6/30 7:09,2.2,4,2.3,4,2.6,6
2018/6/30 7:10,2.3,4,2.3,4,3.2,6
2018/6/30 7:11,2.2,4,2.3,4,3.2,4
2018/6/30 7:12,2.2,4,2.2,4,3,4
2018/6/30 7:13,1.9,4,2.1,4,1.3,4
2018/6/30 7:14,1.7,4,1.9,4,2,8
2018/6/30 7:15,1.6,5,1.7,4,2.2,8
2018/6/30 7:16,1.6,5,1.6,4,1.8,10
2018/6/30 7:17,1.6,6,1.6,4,2,9
2018/6/30 7:18,1.5,6,1.5,4,2,6
2018/6/30 7:19,1.5,6,1.5,4,2.2,5
2018/6/30 7:20,1.3,6,1.5,4,1.8,4
2018/6/30 7:21,1.1,6,1.3,4,1.3,4
2018/6/30 7:22,1,6,1.1,4,1.3,5
2018/6/30 7:23,0.9,6,1,4,0.8,3
2018/6/30 7:24,0.9,5,0.9,4,1.3,3
2018/6/30 7:25,0.9,5,0.9,5,2,3
2018/6/30 7:26,0.9,4,0.9,5,1.6,5
2018/6/30 7:27,0.9,4,0.9,6,2.6,5
2018/6/30 7:28,1,4,1,6,3.2,5
2018/6/30 7:29,1.1,4,1.1,6,3.6,6
2018/6/30 7:30,1.2,4,1.2,6,3.2,6
2018/6/30 7:31,1.4,5,1.4,4,2.6,5
2018/6/30 7:32,1.5,5,1.5,5,2.2,4
2018/6/30 7:33,1.6,5,1.6,5,3,4
2018/6/30 7:34,1.7,5,1.7,5,1.9,3
2018/6/30 7:35,1.7,5,1.7,5,1.9,4
2018/6/30 7:36,1.8,5,1.8,5,2.6,5
2018/6/30 7:37,1.8,5,1.8,5,1.5,4
2018/6/30 7:38,1.6,5,1.8,5,1.5,4
2018/6/30 7:39,1.5,4,1.6,5,1.5,5
2018/6/30 7:40,1.4,4,1.4,5,2.1,4
2018/6/30 7:41,1.3,4,1.4,5,1.6,4
2018/6/30 7:42,1.3,4,1.3,5,2.1,3
2018/6/30 7:43,1.2,4,1.3,5,1.8,3
2018/6/30 7:44,1.3,4,1.3,5,2.9,4
2018/6/30 7:45,1.3,4,1.3,5,2.1,4
2018/6/30 7:46,1.3,4,1.3,5,2.4,3
2018/6/30 7:47,1.3,3,1.3,5,2.1,3
2018/6/30 7:48,2,2,2,2,2.6,4
2018/6/30 7:49,1.7,3,2.2,3,3.1,4
2018/6/30 7:50,1.6,3,1.7,3,2.7,3
2018/6/30 7:51,1.8,3,1.8,3,3.1,2
2018/6/30 7:52,1.7,3,1.8,3,2.4,2
2018/6/30 7:53,1.7,3,1.7,3,2.9,2
2018/6/30 7:54,1.9,3,1.9,3,3.6,4
2018/6/30 7:55,1.9,3,1.9,3,3,3
2018/6/30 7:56,1.7,2,1.9,3,1.8,3
2018/6/30 7:57,1.7,2,1.7,3,2,16
2018/6/30 7:58,1.6,2,1.7,3,2.1,3
2018/6/30 7:59,1.6,2,1.6,3,2.7,3
2018/6/30 8:00,1.7,2,1.7,3,3.2,3
2018/6/30 8:01,1.5,2,1.7,3,2.2,1
2018/6/30 8:02,1.6,2,1.6,3,2.5,2
2018/6/30 8:03,1.5,2,1.6,3,2,1
2018/6/30 8:04,1.5,2,1.5,3,3.1,1
2018/6/30 8:05,1.5,2,1.5,3,2.7,3
2018/6/30 8:06,1.6,2,1.6,2,3.3,3
2018/6/30 8:07,1.7,2,1.7,2,2.6,2
2018/6/30 8:08,1.8,2,1.8,2,3,3
2018/6/30 8:09,1.9,2,1.9,2,3.5,3
2018/6/30 8:10,2,2,2,2,3.2,3
2018/6/30 8:11,2.1,2,2.1,2,3.5,2
2018/6/30 8:12,2.1,2,2.1,2,3.5,3
2018/6/30 8:13,2.1,2,2.1,2,2.1,2
2018/6/30 8:14,2,2,2.1,2,1.9,2
2018/6/30 8:15,2,2,2,2,3,2
2018/6/30 8:16,1.9,2,2,2,2.9,3
2018/6/30 8:17,2,2,2,2,3.5,1
2018/6/30 8:18,1.9,2,2,2,3.1,2
2018/6/30 8:19,1.8,2,1.9,2,3.2,2
2018/6/30 8:20,1.7,2,1.8,2,1.9,2
2018/6/30 8:21,1.6,2,1.7,2,3.5,2
2018/6/30 8:22,1.6,2,1.6,2,2.7,1
2018/6/30 8:23,1.7,2,1.7,2,4.3,1
2018/6/30 8:24,1.8,2,1.8,2,3.1,2
2018/6/30 8:25,1.9,2,1.9,2,3.5,1
2018/6/30 8:26,1.8,2,1.9,2,2.9,2
2018/6/30 8:27,1.9,2,1.9,2,3.9,3
2018/6/30 8:28,1.9,2,1.9,2,3.3,4
2018/6/30 8:29,2,2,2,2,3.5,3
2018/6/30 8:30,2.1,2,2.1,2,3.2,3
2018/6/30 8:31,2.1,2,2.1,2,3.1,3
2018/6/30 8:32,2.1,3,2.1,2,3.1,3
2018/6/30 8:33,2.1,3,2.1,2,3.1,3
2018/6/30 8:34,2.2,3,2.2,3,3.9,2
2018/6/30 8:35,2.2,2,2.2,3,4.7,2
2018/6/30 8:36,2.4,3,2.4,3,4.8,2
2018/6/30 8:37,2.4,2,2.4,3,4.3,2
2018/6/30 8:38,2.4,2,2.4,3,3.2,2
2018/6/30 8:39,2.3,2,2.4,3,2.6,3
2018/6/30 8:40,2.3,2,2.3,3,5.1,4
2018/6/30 8:41,2.4,3,2.4,3,3.7,4
2018/6/30 8:42,2.3,3,2.4,3,1.6,5
2018/6/30 8:43,2.2,3,2.3,3,2.4,1
2018/6/30 8:44,2.1,3,2.2,3,2.9,3
2018/6/30 8:45,1.9,3,2,3,1.8,2
2018/6/30 8:46,1.7,3,1.9,2,2.6,3
2018/6/30 8:47,1.6,3,1.7,2,2.7,3
2018/6/30 8:48,1.6,3,1.6,2,2.9,2
2018/6/30 8:49,1.6,3,1.6,2,2.2,5
2018/6/30 8:50,1.6,3,1.6,2,3,3
2018/6/30 8:51,1.5,3,1.6,3,2.7,5
2018/6/30 8:52,1.5,3,1.5,3,2.1,3
2018/6/30 8:53,1.5,3,1.6,3,2.1,4
2018/6/30 8:54,1.5,3,1.5,3,1.5,2
2018/6/30 8:55,1.5,3,1.5,3,1.6,1
2018/6/30 8:56,1.5,3,1.5,3,1.9,3
2018/6/30 8:57,1.5,3,1.5,3,2.1,4
2018/6/30 8:58,1.4,3,1.5,3,1.9,3
2018/6/30 8:59,1.4,3,1.4,3,1.5,3
2018/6/30 9:00,1.3,3,1.4,3,1.8,3
2018/6/30 9:01,1.4,3,1.4,3,2.7,2
2018/6/30 9:02,1.4,3,1.4,3,2.4,2
2018/6/30 9:03,1.5,3,1.5,3,3.1,3
2018/6/30 9:04,1.5,3,1.5,3,2.2,3
2018/6/30 9:05,1.5,3,1.5,3,2,4
2018/6/30 9:06,1.5,3,1.5,3,1.5,5
2018/6/30 9:07,1.5,3,1.5,3,2.1,4
2018/6/30 9:08,1.5,3,1.5,3,1.9,2
2018/6/30 9:09,1.5,3,1.5,3,2,3
2018/6/30 9:10,1.5,3,1.5,3,1.9,2
2018/6/30 9:11,1.4,3,1.5,3,2.5,2
2018/6/30 9:12,1.4,3,1.4,3,2.2,3
2018/6/30 9:13,1.3,3,1.4,3,2.5,4
2018/6/30 9:14,1.4,3,1.4,3,2.2,2
2018/6/30 9:15,1.4,3,1.4,3,2.5,4
2018/6/30 9:16,1.3,3,1.4,3,1.5,3
2018/6/30 9:17,1.3,3,1.3,3,1.9,2
2018/6/30 9:18,1.3,3,1.3,3,1.8,3
2018/6/30 9:19,1.3,3,1.3,3,2.5,3
2018/6/30 9:20,1.4,3,1.4,3,2.5,3
2018/6/30 9:21,1.4,3,1.4,3,2.5,3
2018/6/30 9:22,1.4,3,1.4,3,2.5,3
2018/6/30 9:23,1.4,3,1.4,3,2.4,3
2018/6/30 9:24,1.4,3,1.4,3,2.5,3
2018/6/30 9:25,1.4,3,1.4,3,1.9,2
2018/6/30 9:26,1.4,2,1.4,3,2,1
2018/6/30 9:27,1.4,2,1.4,3,1.9,16
2018/6/30 9:28,1.4,2,1.4,3,1.6,2
2018/6/30 9:29,1.4,2,1.4,3,1.8,3
2018/6/30 9:30,1.3,2,1.3,3,2.1,3
2018/6/30 9:31,1.2,2,1.3,3,2,3
2018/6/30 9:32,1.2,2,1.2,3,1.6,1
2018/6/30 9:33,1.2,2,1.2,3,1.6,2
2018/6/30 9:34,1,2,1.1,3,1.3,16
2018/6/30 9:35,1,2,1,2,2.2,3
2018/6/30 9:36,1.1,2,1.1,2,2.5,3
2018/6/30 9:37,1.2,2,1.2,2,2.9,4
2018/6/30 9:38,1.3,2,1.3,2,2.7,4
2018/6/30 9:39,1.3,2,1.3,2,1.4,3
2018/6/30 9:40,1.3,2,1.3,2,2.5,4
2018/6/30 9:41,1.4,3,1.4,3,2.2,3
2018/6/30 9:42,1.4,3,1.4,3,2.5,4
2018/6/30 9:43,1.5,3,1.5,3,3,3
2018/6/30 9:44,1.6,3,1.6,3,2.4,3
2018/6/30 9:45,1.7,3,1.7,3,2.1,3
2018/6/30 9:46,1.7,3,1.7,3,2.4,3
2018/6/30 9:47,1.6,3,1.7,3,2,4
2018/6/30 9:48,1.6,3,1.6,3,2,3
2018/6/30 9:49,1.6,3,1.6,3,2.2,4
2018/6/30 9:50,1.6,3,1.6,3,3.9,4
2018/6/30 9:51,1.6,3,1.6,3,2.7,3
2018/6/30 9:52,1.6,3,1.6,3,2.1,4
2018/6/30 9:53,1.5,4,1.6,3,2.5,5
2018/6/30 9:54,1.5,4,1.5,3,2.9,6
2018/6/30 9:55,1.5,4,1.5,3,3.2,5
2018/6/30 9:56,1.6,5,1.6,3,3,7
2018/6/30 9:57,1.5,5,1.6,3,1.9,8
2018/6/30 9:58,1.4,5,1.5,3,1.1,9
2018/6/30 9:59,1.4,6,1.5,3,1.8,6
2018/6/30 10:00,1.3,6,1.4,3,1.3,5
2018/6/30 10:01,1.3,6,1.3,3,1.3,5
2018/6/30 10:02,1.2,6,1.3,3,1.1,5
2018/6/30 10:03,1.1,6,1.2,4,2,5
2018/6/30 10:04,1.1,6,1.1,4,1.8,4
2018/6/30 10:05,1,6,1.1,4,1.8,4
2018/6/30 10:06,1,5,1,5,2.5,5
2018/6/30 10:07,1.1,5,1.1,5,2.9,5
2018/6/30 10:08,1.2,5,1.2,6,3.1,6
2018/6/30 10:09,1.3,5,1.3,6,2.2,5
2018/6/30 10:10,1.4,5,1.4,5,2.6,4
2018/6/30 10:11,1.6,5,1.6,5,3.2,5
2018/6/30 10:12,1.7,5,1.7,5,3.5,4
2018/6/30 10:13,1.7,5,1.7,5,1.9,5
2018/6/30 10:14,1.7,5,1.7,5,1.4,3
2018/6/30 10:15,1.7,4,1.7,5,2,3
2018/6/30 10:16,1.7,5,1.7,5,2.1,5
2018/6/30 10:17,1.7,5,1.7,5,3.8,7
2018/6/30 10:18,1.7,5,1.7,5,3.5,6
2018/6/30 10:19,1.6,5,1.7,5,2.2,4
2018/6/30 10:20,1.7,5,1.7,5,3.3,4
2018/6/30 10:21,1.7,5,1.7,5,3.6,5
2018/6/30 10:22,1.9,5,1.9,5,5.8,5
2018/6/30 10:23,2.1,5,2.1,5,4.5,5
2018/6/30 10:24,2.3,5,2.3,5,3.6,6
2018/6/30 10:25,2.4,6,2.4,6,2.4,5
2018/6/30 10:26,2.5,6,2.5,6,3.2,5
2018/6/30 10:27,2.3,6,2.5,6,2.4,7
2018/6/30 10:28,2.3,5,2.3,6,1.5,5
2018/6/30 10:29,2.3,5,2.3,6,2.1,5
2018/6/30 10:30,2.2,6,2.3,6,2,6
2018/6/30 10:31,2,6,2.1,6,2.4,6
2018/6/30 10:32,1.8,6,2,6,2.1,5
2018/6/30 10:33,1.6,6,1.7,6,2.7,5
2018/6/30 10:34,1.5,6,1.6,6,2.2,9
2018/6/30 10:35,1.5,6,1.5,6,3.1,7
2018/6/30 10:36,1.4,6,1.5,6,2.6,6
2018/6/30 10:37,1.4,6,1.4,6,1.8,6
2018/6/30 10:38,1.4,6,1.4,5,1,6
2018/6/30 10:39,1.4,6,1.4,5,2.5,8
2018/6/30 10:40,1.5,6,1.5,6,3.2,4
2018/6/30 10:41,1.5,6,1.5,6,2.2,6
2018/6/30 10:42,1.4,6,1.5,6,1.6,9
2018/6/30 10:43,1.3,6,1.4,6,1.5,6
2018/6/30 10:44,1.2,7,1.3,6,1.3,8
2018/6/30 10:45,1.1,7,1.2,6,1.4,8
2018/6/30 10:46,1,7,1.1,6,0.6,9
2018/6/30 10:47,0.9,7,1,6,1.3,8
2018/6/30 10:48,0.9,8,0.9,6,1.1,8
2018/6/30 10:49,0.8,8,0.9,6,1.1,10
2018/6/30 10:50,0.8,8,0.8,6,3.1,8
2018/6/30 10:51,0.7,8,0.8,6,1.4,8
2018/6/30 10:52,0.6,8,0.7,6,0.3,14
2018/6/30 10:53,0.6,8,0.6,6,1.6,7
2018/6/30 10:54,0.7,8,0.7,7,2.6,8
2018/6/30 10:55,0.7,8,0.7,7,1.5,8
2018/6/30 10:56,0.8,8,0.8,7,1.9,6
2018/6/30 10:57,0.9,7,0.9,7,1.9,8
2018/6/30 10:58,0.9,7,0.9,7,1.8,8
2018/6/30 10:59,1,7,1,7,2.9,5
2018/6/30 11:00,1,6,1,7,2.7,5
2018/6/30 11:01,1.2,6,1.2,6,4.3,6
2018/6/30 11:02,1.5,6,1.5,6,4.9,7
2018/6/30 11:03,1.7,6,1.7,6,4.8,6
2018/6/30 11:04,1.9,6,1.9,6,5.7,6
2018/6/30 11:05,2,6,2,6,3.3,8
2018/6/30 11:06,2.1,6,2.1,6,4.4,8
2018/6/30 11:07,2.3,6,2.3,6,3.9,7
2018/6/30 11:08,2.3,6,2.3,6,2.6,6
2018/6/30 11:09,2.4,7,2.4,6,3.3,6
2018/6/30 11:10,2.4,7,2.4,6,3.9,4
2018/6/30 11:11,2.4,7,2.5,7,4.3,6
2018/6/30 11:12,2.4,7,2.4,7,5.5,5
2018/6/30 11:13,2.7,7,2.7,7,8.4,6
2018/6/30 11:14,2.7,7,2.7,7,7.1,6
2018/6/30 11:15,2.8,6,2.8,6,4.8,6
2018/6/30 11:16,2.8,6,2.8,6,5.1,6
2018/6/30 11:17,2.8,6,2.9,6,4.8,8
2018/6/30 11:18,3,6,3,6,4.4,7
2018/6/30 11:19,3,7,3,6,2.9,9
2018/6/30 11:20,3,7,3,6,4.5,6
2018/6/30 11:21,2.9,7,2.9,6,4.1,8
2018/6/30 11:22,2.9,7,2.9,6,4.4,8
2018/6/30 11:23,2.6,7,2.9,6,4.2,8
2018/6/30 11:24,2.4,7,2.5,6,4.7,8
2018/6/30 11:25,2.4,8,2.5,6,5.2,8
2018/6/30 11:26,2.4,8,2.5,6,4.4,8
2018/6/30 11:27,2.4,8,2.4,6,4.7,8
2018/6/30 11:28,2.3,8,2.4,6,4.2,6
2018/6/30 11:29,2.4,7,2.4,7,4.2,6
2018/6/30 11:30,2.3,7,2.4,7,3.5,6
2018/6/30 11:31,2.4,7,2.4,7,4.1,6
2018/6/30 11:32,2.6,7,2.6,7,7.1,5
2018/6/30 11:33,2.7,7,2.7,7,6,6
2018/6/30 11:34,3,7,3,7,7.6,6
2018/6/30 11:35,3,6,3,7,5.2,6
2018/6/30 11:36,3.1,6,3.1,6,6.3,6
2018/6/30 11:37,3.2,6,3.2,6,5.1,6
2018/6/30 11:38,3.6,6,3.6,6,7.7,5
2018/6/30 11:39,3.8,6,3.8,6,8.2,8
2018/6/30 11:40,4,6,4,6,6.7,6
2018/6/30 11:41,4.1,6,4.1,6,5.6,6
2018/6/30 11:42,4,6,4.1,6,6.8,7
2018/6/30 11:43,4,6,4,6,4.5,6
2018/6/30 11:44,3.8,6,4,6,4.7,7
2018/6/30 11:45,3.7,6,3.7,6,2.9,8
2018/6/30 11:46,3.5,6,3.7,6,4.9,4
2018/6/30 11:47,3.5,6,3.5,6,4.8,5
2018/6/30 11:48,3.5,6,3.5,6,6.2,5
2018/6/30 11:49,3.3,6,3.4,6,6.4,5
2018/6/30 11:50,3,6,3.2,6,5,4
2018/6/30 11:51,3.1,6,3.1,6,5.2,5